Wind_Speed
49 47 45 44 41 38 36 36 29 29 28 25 23 21 21 23 20 16 19 14 12 15 17 17 19 15 13 7 5 8 6 6 6 5 8 5 3 9 8 6 8 10 11
52 49 47 43 37 36 35 35 32 29 27 23 20 19 20 21 14 19 17 13 13 15 17 22 19 19 17 11 6 7 6 7 7 6 8 5 9 10 11 10 13 14 13
51 48 45 41 38 37 36 36 34 28 25 20 19 16 19 19 15 18 15 15 14 17 20 24 23 21 16 13 6 8 9 11 12 11 10 8 9 10 11 12 12 10 10
51 49 45 41 41 37 38 40 35 29 25 18 14 15 18 19 17 19 19 17 15 20 17 21 22 21 19 15 9 9 10 12 15 16 15 13 12 14 11 9 10 8 9
49 50 47 44 42 38 38 40 36 30 25 20 20 17 19 19 18 17 20 16 14 15 19 20 20 18 19 18 6 7 9 10 17 19 17 13 17 14 11 11 9 8 9
49 49 47 46 43 40 39 42 36 30 24 22 20 21 21 20 17 17 17 13 12 14 16 17 18 20 20 15 6 11 12 11 19 18 17 19 16 14 12 11 10 10 8
50 49 47 46 43 41 39 41 36 30 24 23 21 23 22 20 17 16 13 11 6 16 17 18 17 18 17 13 11 16 15 16 19 22 23 20 18 15 12 13 12 9 6
43 47 45 47 44 41 40 39 34 30 25 23 24 26 27 23 21 20 13 15 15 14 15 19 17 19 18 17 17 20 18 18 20 21 20 20 17 13 14 14 12 8 4
37 40 45 44 45 42 42 41 36 33 27 23 24 30 31 32 30 24 21 25 11 15 15 18 18 22 18 18 19 19 19 19 21 20 20 16 14 12 13 13 11 8 5
41 42 46 47 47 47 45 43 39 35 31 29 30 37 35 39 30 28 26 19 17 14 16 20 22 23 20 21 18 19 21 18 18 20 18 15 13 12 13 11 11 9 6
35 40 45 48 49 49 49 47 43 40 35 35 39 41 40 39 37 28 25 28 29 23 17 21 28 22 21 20 14 18 20 19 17 17 15 13 12 11 12 10 8 9 8
44 44 46 49 50 50 50 49 45 41 41 41 45 44 45 44 41 33 35 30 26 29 20 24 26 25 21 18 18 18 18 19 19 17 14 12 10 10 9 10 10 7 9
57 46 47 52 53 50 51 50 47 45 46 48 50 47 50 47 46 42 42 38 29 31 25 27 29 23 17 18 16 16 15 22 18 15 13 11 9 9 9 10 10 9 10
60 54 52 52 51 52 52 51 48 46 50 50 55 50 51 47 48 40 37 36 34 37 29 31 31 23 18 20 18 16 16 18 16 16 15 14 12 11 12 12 10 9 11
67 62 57 54 52 55 55 55 51 49 56 54 56 53 52 50 49 35 38 42 47 40 36 33 31 26 19 22 17 18 17 18 19 18 18 17 15 14 12 15 10 9 11
75 67 63 62 56 57 58 59 55 53 56 58 54 58 53 55 56 51 38 41 37 44 42 39 36 34 22 20 21 19 17 14 18 20 21 21 18 14 12 15 14 13 15
79 75 68 65 61 59 60 62 60 55 56 61 55 60 54 62 61 59 43 44 45 46 45 42 41 38 30 24 25 24 20 16 12 12 15 12 17 11 9 11 17 19 18
83 80 78 73 69 64 63 66 66 62 59 64 60 65 57 68 68 67 50 42 44 48 50 43 41 37 37 32 24 27 26 21 14 15 16 14 16 13 12 13 15 20 19
91 87 83 80 75 72 65 69 69 65 66 65 67 67 67 72 71 67 53 44 46 45 48 44 41 41 39 34 30 27 24 27 20 16 22 18 17 17 15 17 19 24 23
98 96 91 86 85 78 73 71 72 70 67 68 70 68 71 74 69 76 68 57 55 49 49 50 42 41 42 38 31 28 29 26 25 16 24 18 18 23 17 20 21 22 24
102 100 99 92 87 85 81 75 73 75 72 73 71 72 72 73 76 74 78 62 58 56 49 49 43 44 41 40 34 32 27 29 29 22 25 24 23 27 22 23 21 19 24
108 106 103 100 93 91 85 84 78 76 76 76 77 74 73 74 78 73 74 76 69 62 50 48 57 55 44 44 43 38 33 37 33 33 32 30 28 27 27 23 21 21 29
103 110 109 105 102 98 94 88 83 81 79 78 77 76 76 76 76 78 69 73 71 66 61 52 59 60 53 45 46 41 38 43 43 39 38 35 34 31 32 21 20 24 28
98 106 114 112 106 104 103 98 92 87 84 82 80 80 80 76 78 81 73 74 66 68 65 58 56 58 59 57 49 44 46 40 37 39 44 38 40 34 29 27 25 25 27
100 100 109 116 114 109 106 104 99 93 88 87 85 83 83 81 80 81 83 79 70 68 59 56 67 62 59 59 54 49 50 49 38 44 41 38 39 35 33 33 31 30 30
101 100 102 113 119 117 111 109 107 101 94 91 90 85 86 86 82 84 88 79 85 66 61 64 70 68 65 63 59 54 53 46 44 48 39 38 39 34 37 34 34 35 33
Wind_Direction
271 273 274 274 277 278 278 267 259 260 260 259 264 263 255 250 263 264 276 256 229 234 208 205 213 203 186 189 162 173 192 170 154 158 188 163 211 143 130 148 160 159 160
270 270 269 269 263 267 267 254 252 254 256 256 260 255 246 244 251 259 267 218 228 206 212 211 218 208 213 200 187 182 237 220 185 184 191 187 139 146 149 160 156 144 138
266 266 265 262 257 257 254 243 242 244 251 252 250 238 231 233 235 253 246 211 210 211 213 224 219 203 215 204 208 227 248 235 224 209 193 188 172 156 145 160 139 132 136
265 265 259 252 248 249 242 236 234 237 242 239 229 233 218 223 228 243 215 197 216 215 217 214 217 217 213 219 235 240 242 218 209 198 196 197 175 155 168 154 131 134 143
266 265 254 244 242 240 238 233 230 228 228 226 229 228 199 213 223 233 198 204 220 225 222 217 214 214 216 215 241 237 232 222 193 187 184 195 162 173 173 138 139 148 154
268 259 249 242 240 235 231 230 226 219 220 216 222 207 195 205 214 209 188 210 225 245 236 229 211 207 203 208 261 210 211 200 181 183 182 166 167 166 162 150 156 166 168
259 252 248 243 240 235 230 227 221 215 210 209 209 205 190 190 204 186 190 213 226 240 238 237 217 208 197 214 224 191 180 168 162 166 167 170 164 162 163 158 167 176 174
258 247 237 240 236 231 229 226 221 214 203 202 200 198 185 185 174 165 195 205 196 234 229 239 226 204 203 231 194 186 174 172 168 168 169 163 162 169 164 170 179 181 194
249 238 236 237 233 227 225 224 220 220 198 195 201 189 185 169 167 190 186 215 220 230 237 233 220 202 214 209 182 184 178 184 174 168 165 167 169 170 176 185 193 202 217
241 238 233 231 227 222 218 221 217 214 201 197 200 189 184 171 184 190 186 205 224 233 242 230 206 197 217 185 181 190 181 184 179 171 172 174 177 179 192 207 215 211 221
217 226 231 228 228 223 217 216 213 205 206 198 195 191 180 178 172 171 177 185 199 240 232 223 187 194 191 195 194 196 189 187 186 176 172 183 196 195 202 210 220 204 241
229 228 230 226 224 224 220 216 208 202 200 198 194 190 177 182 170 181 192 187 198 227 223 194 185 194 199 195 189 183 186 193 187 180 184 190 199 215 219 224 202 234 254
222 224 231 227 221 223 223 215 212 202 195 193 191 190 183 183 185 189 184 185 193 214 212 196 191 198 194 189 194 195 192 187 188 189 200 222 234 249 245 217 218 238 266
222 224 226 230 224 223 220 216 214 206 194 193 190 191 189 187 192 194 188 195 200 209 209 202 203 197 192 191 189 189 189 198 206 209 219 229 240 260 251 216 229 249 286
226 224 225 231 224 220 219 216 213 209 196 197 195 190 194 190 190 179 195 197 210 211 214 196 208 207 200 197 195 192 190 206 210 218 229 239 244 249 249 234 250 266 269
228 222 222 225 228 221 218 214 212 210 203 201 199 191 194 187 186 184 189 190 195 210 213 208 207 217 210 198 206 205 209 223 235 228 235 241 245 245 247 246 254 269 268
224 223 222 224 229 223 219 216 212 209 206 203 199 194 195 189 184 176 186 185 203 216 207 213 215 217 214 220 213 212 218 218 237 239 235 251 248 234 252 278 267 263 268
226 226 225 224 229 223 218 216 214 210 207 205 202 198 197 190 185 186 185 202 211 212 211 214 213 216 219 217 215 214 217 212 228 236 240 253 261 248 275 279 280 275 270
226 225 224 224 227 228 219 216 214 211 207 204 204 201 198 195 188 190 185 192 204 204 212 213 213 214 223 217 216 215 217 219 223 253 246 236 247 251 267 277 278 272 268
226 226 225 224 224 224 226 216 215 210 206 204 206 205 203 202 194 196 199 193 199 204 209 212 215 213 214 220 219 231 225 223 227 234 249 234 252 250 278 278 283 265 263
224 224 226 222 223 222 222 219 213 214 210 208 206 206 205 204 201 199 202 196 194 197 208 212 229 229 226 220 226 232 238 237 235 235 238 245 251 251 269 273 281 262 260
225 222 222 224 220 222 219 220 213 212 210 208 209 208 206 205 204 198 202 205 205 202 210 218 218 226 226 234 234 241 235 245 233 230 244 258 253 248 267 262 270 253 247
223 221 220 220 219 217 219 218 216 212 212 210 209 209 207 206 205 201 199 201 205 206 208 220 220 222 221 223 228 227 232 237 235 242 258 258 252 261 261 255 269 280 258
225 221 219 218 218 216 217 219 218 214 214 212 209 207 209 206 205 204 193 198 200 202 205 217 220 223 222 221 222 227 228 231 242 248 257 255 251 251 250 265 266 277 264
228 221 218 217 217 216 214 217 217 214 211 214 208 207 209 206 205 203 196 199 201 204 209 213 217 220 218 226 225 225 232 236 237 246 245 246 251 251 251 257 265 270 260
229 224 218 216 215 214 214 214 215 214 210 210 207 208 207 207 206 204 203 193 198 201 208 212 220 220 225 229 224 230 236 236 237 243 236 251 257 257 246 255 261 267 267
Height
10827 10830 10832 10833 10835 10837 10837 10839 10839 10841 10844 10846 10847 10848 10851 10852 10855 10859 10859 10859 10860 10860 10861 10862 10864 10866 10867 10868 10868 10868 10868 10869 10868 10869 10870 10870 10870 10871 10871 10872 10873 10874 10875
10819 10821 10823 10825 10826 10829 10831 10832 10834 10836 10838 10842 10843 10844 10847 10850 10853 10856 10857 10857 10858 10859 10860 10862 10862 10864 10866 10867 10867 10867 10868 10868 10867 10869 10870 10871 10871 10870 10871 10872 10874 10875 10876
10809 10811 10813 10815 10818 10821 10824 10826 10828 10831 10834 10837 10838 10840 10844 10848 10851 10854 10855 10856 10858 10859 10859 10859 10861 10863 10865 10865 10865 10865 10865 10865 10866 10868 10869 10871 10870 10871 10872 10874 10874 10875 10876
10799 10801 10802 10805 10809 10813 10817 10819 10821 10825 10829 10833 10835 10837 10841 10845 10850 10852 10854 10856 10857 10858 10858 10858 10860 10861 10863 10863 10863 10862 10862 10862 10863 10865 10868 10869 10870 10871 10873 10874 10875 10875 10876
10788 10790 10792 10794 10798 10803 10809 10813 10816 10820 10824 10828 10832 10835 10838 10842 10848 10850 10853 10856 10856 10857 10856 10857 10858 10859 10861 10861 10861 10860 10860 10860 10861 10863 10866 10868 10870 10871 10872 10873 10874 10875 10876
10780 10780 10783 10786 10790 10795 10800 10806 10811 10814 10819 10823 10828 10831 10835 10841 10845 10848 10851 10852 10855 10855 10854 10855 10856 10857 10858 10859 10859 10859 10859 10859 10859 10862 10865 10867 10869 10871 10872 10873 10874 10875 10876
10767 10770 10776 10780 10784 10789 10795 10801 10806 10810 10814 10818 10823 10828 10833 10838 10842 10846 10849 10852 10852 10852 10852 10853 10854 10855 10856 10858 10858 10859 10859 10859 10860 10861 10864 10866 10868 10870 10871 10872 10874 10875 10876
10756 10758 10764 10769 10774 10780 10789 10796 10801 10805 10809 10814 10819 10825 10830 10835 10840 10844 10848 10849 10849 10850 10850 10850 10852 10854 10855 10856 10856 10859 10859 10860 10860 10862 10864 10866 10867 10869 10870 10872 10873 10875 10875
10746 10748 10755 10759 10765 10772 10780 10787 10795 10800 10804 10809 10814 10820 10825 10831 10836 10840 10843 10846 10847 10847 10847 10848 10849 10852 10853 10854 10855 10858 10858 10860 10860 10862 10864 10866 10867 10868 10870 10871 10872 10874 10874
10738 10740 10743 10747 10750 10757 10767 10776 10785 10794 10798 10801 10807 10812 10818 10826 10830 10836 10840 10843 10844 10845 10844 10845 10847 10849 10851 10853 10855 10857 10858 10860 10861 10861 10863 10865 10867 10867 10868 10870 10871 10873 10873
10724 10728 10733 10737 10742 10748 10755 10763 10771 10783 10791 10794 10800 10806 10813 10820 10827 10832 10836 10836 10840 10842 10842 10843 10845 10848 10850 10852 10853 10856 10857 10859 10860 10861 10863 10865 10866 10866 10867 10869 10870 10871 10872
10717 10719 10722 10726 10732 10740 10749 10757 10764 10772 10781 10787 10794 10801 10808 10816 10821 10827 10828 10831 10835 10838 10840 10841 10844 10846 10848 10849 10851 10853 10856 10857 10859 10860 10862 10864 10865 10866 10866 10867 10869 10870 10870
10704 10708 10708 10714 10722 10730 10741 10749 10758 10763 10770 10775 10785 10794 10800 10808 10814 10819 10820 10827 10830 10834 10836 10840 10842 10843 10845 10847 10849 10852 10854 10855 10857 10859 10861 10863 10864 10865 10865 10866 10867 10868 10868
10694 10697 10699 10704 10714 10722 10731 10741 10750 10757 10764 10768 10774 10785 10793 10802 10809 10816 10820 10824 10826 10829 10833 10838 10839 10840 10843 10845 10847 10850 10852 10855 10856 10858 10860 10861 10862 10863 10864 10865 10865 10866 10866
10678 10684 10690 10694 10703 10712 10720 10730 10739 10748 10755 10761 10767 10774 10783 10794 10803 10810 10817 10819 10820 10825 10829 10833 10835 10837 10840 10843 10846 10848 10850 10853 10854 10856 10858 10860 10860 10861 10862 10863 10863 10863 10864
10661 10670 10676 10684 10691 10701 10710 10718 10728 10737 10746 10750 10759 10766 10771 10784 10794 10799 10807 10811 10814 10818 10824 10827 10831 10834 10837 10839 10842 10845 10848 10850 10852 10853 10855 10856 10858 10859 10860 10861 10861 10861 10861
10645 10655 10664 10672 10679 10690 10698 10707 10716 10726 10734 10742 10747 10757 10761 10771 10781 10787 10795 10803 10806 10812 10817 10821 10825 10829 10833 10835 10838 10842 10844 10847 10849 10850 10852 10854 10855 10856 10857 10858 10858 10859 10859
10624 10635 10647 10657 10666 10676 10686 10694 10702 10711 10721 10729 10736 10744 10751 10756 10768 10779 10788 10796 10798 10806 10812 10816 10820 10825 10828 10831 10833 10837 10840 10843 10846 10847 10849 10851 10852 10853 10854 10855 10855 10856 10856
10603 10614 10627 10640 10652 10660 10672 10680 10688 10697 10707 10717 10726 10734 10743 10747 10758 10768 10780 10788 10793 10800 10805 10810 10813 10818 10822 10825 10828 10832 10835 10838 10840 10844 10845 10847 10849 10849 10850 10851 10852 10853 10853
10579 10592 10605 10619 10632 10644 10655 10666 10675 10684 10695 10705 10713 10721 10731 10740 10746 10758 10767 10771 10784 10792 10796 10802 10806 10810 10814 10818 10822 10826 10830 10833 10836 10839 10841 10842 10845 10845 10846 10848 10848 10849 10849
10551 10567 10583 10598 10611 10625 10636 10650 10660 10671 10680 10688 10698 10707 10718 10728 10734 10745 10754 10763 10774 10781 10788 10793 10797 10802 10807 10811 10817 10820 10824 10827 10830 10834 10835 10838 10840 10841 10842 10843 10844 10845 10846
10519 10539 10556 10573 10590 10603 10618 10631 10644 10653 10664 10673 10682 10693 10704 10714 10724 10735 10744 10753 10761 10769 10779 10784 10788 10793 10799 10804 10809 10813 10819 10821 10823 10827 10830 10833 10835 10837 10838 10839 10840 10841 10842
10487 10507 10527 10546 10564 10582 10596 10610 10625 10637 10647 10657 10670 10682 10691 10701 10713 10724 10734 10742 10752 10761 10769 10774 10777 10781 10790 10795 10799 10806 10811 10814 10815 10820 10823 10826 10829 10831 10832 10833 10834 10836 10836
10456 10475 10497 10518 10537 10557 10573 10589 10604 10620 10632 10643 10655 10665 10675 10687 10700 10713 10724 10733 10740 10744 10756 10762 10767 10772 10780 10786 10790 10798 10802 10805 10809 10813 10816 10818 10821 10824 10826 10827 10828 10830 10831
10424 10445 10465 10487 10510 10530 10549 10566 10583 10600 10613 10626 10639 10649 10660 10672 10684 10696 10709 10723 10734 10740 10743 10746 10755 10762 10769 10776 10784 10788 10793 10796 10803 10804 10807 10811 10814 10817 10818 10819 10821 10823 10825
10389 10413 10436 10457 10480 10504 10523 10541 10559 10578 10594 10607 10622 10633 10645 10658 10670 10683 10694 10708 10712 10724 10731 10737 10742 10749 10758 10765 10772 10779 10785 10790 10793 10796 10799 10805 10807 10808 10810 10811 10813 10817 10818